Location: Round Knob
(37.2473°N, 88.7376°W)
Time: 13:22:02
(UTC+00:00)

Nauka - Visible Passes

Search period start: 24 September 2021 00:00
Search period end: 04 October 2021 00:00
Orbit: 419 x 423 km, 51.6° (Epoch: 23 September)

Date Brightness Start Highest point End Pass type
(mag) Time Alt. Az. Time Alt. Az. Time Alt. Az.
24 Sep ? 00:23:20 10° NW 00:24:43 12° NNW 00:26:08 10° N visible
29 Sep ? 01:22:07 10° N 01:22:46 11° NNE 01:22:46 11° NNE visible
01 Oct ? 01:23:58 10° NNW 01:25:31 17° N 01:25:31 17° N visible
02 Oct ? 00:37:26 10° NNW 00:39:23 14° NNE 00:40:28 13° NE visible
02 Oct ? 02:13:17 10° NW 02:13:28 11° NW 02:13:28 11° NW visible
03 Oct ? 01:26:26 10° NW 01:28:29 30° NNW 01:28:29 30° NNW visible
